Regional Weather Roundup
Issued by NWS Kansas City/Pleasant Hill, MO

Home | Current Version | Previous Version | Text Only | Print | Product List | Glossary On
Versions: 1 2 3 4 5 6 7 8 9 10 11 12 13 14 15 16 17 18 19 20 21 22 23 24 25 26 27 28 29 30 31 32 33 34 35 36 37 38 39 40 41 42 43 44 45 46 47 48 49 50
000
ASUS43 KEAX 301211
RWREAX

WEATHER ROUNDUP FOR EASTERN KANSAS AND NORTHWEST MISSOURI
NATIONAL WEATHER SERVICE KANSAS CITY/PLEASANT HILL MO
700 AM CDT THU OCT 30 2014

KSZ040-057-103>105-MOZ028-029-037-043-301300-
...KANSAS CITY METROPOLITAN AREA...

CITY           SKY/WX    TMP DP  RH WIND       PRES   REMARKS
K.C. INTL      MOCLDY    51  41  68 SW8       30.00R
6HR MIN TEMP:  45; 6HR MAX TEMP:  54;

K.C. DOWNTOWN  CLOUDY    52  40  63 CALM      30.00S
6HR MIN TEMP:  47; 6HR MAX TEMP:  52;

LEES SUMMIT    MOCLDY    49  38  65 SW9       30.01F
6HR MIN TEMP:  48; 6HR MAX TEMP:  50;

OLATHE - IXD   CLOUDY    49  40  71 S5        30.01S
6HR MIN TEMP:  45; 6HR MAX TEMP:  49;

OLATHE - OJC   LGT RAIN  50  41  71 S3        30.01S
6HR MIN TEMP:  44; 6HR MAX TEMP:  51; 6HR PCP: TRACE;

LAWRENCE       CLOUDY    49  40  71 S3        30.00S

$$

MOZ001>008-011>017-020>025-030>033-038>040-044>046-053-054-301300-
...NORTHERN AND CENTRAL MISSOURI...

CITY           SKY/WX    TMP DP  RH WIND       PRES   REMARKS
ST. JOSEPH     PTCLDY    43  37  79 CALM      30.00F
6HR MIN TEMP:  39; 6HR MAX TEMP:  50;

MOSBY          CLOUDY    46  37  71 NE3       30.01S
WHITEMAN AFB   PTCLDY    44  37  74 S8        30.03F
6HR MIN TEMP:  43; 6HR MAX TEMP:  46;

CLINTON        PTCLDY    48  39  71 S7        30.05F
SEDALIA        PTCLDY    46  35  65 S9        30.06F
6HR MIN TEMP:  41; 6HR MAX TEMP:  46;

WARSAW         NOT AVBL
MARSHALL       MOCLDY    45  37  76 SE7       30.06F
CHILLICOTHE      N/A     48  36  63 SE12      30.04F
6HR MIN TEMP:  41; 6HR MAX TEMP:  48;

MOBERLY        CLOUDY    45  36  70 SE6       30.08F
KIRKSVILLE     LGT RAIN  43  38  82 S13       30.08F
6HR MIN TEMP:  34; 6HR MAX TEMP:  43; 6HR PCP: TRACE;


$$

MOZ041-047>049-056>058-063>065-088>090-097-301300-
...EASTERN AND SOUTHERN MISSOURI...

CITY           SKY/WX    TMP DP  RH WIND       PRES   REMARKS
ST. LOUIS INTL PTCLDY    41  35  79 E7        30.15S
6HR MIN TEMP:  39; 6HR MAX TEMP:  44;

SPIRIT OF STL  PTCLDY    34  32  92 CALM      30.14F
COLUMBIA       MOCLDY    40  35  83 SE8       30.09F WCI  34
JEFFERSON CITY PTCLDY    36  34  92 SE3       30.11F
HANNIBAL       PTCLDY    45  32  61 S7        30.10F
ROLLA          CLEAR     40  31  70 S8        30.09F WCI  34
LEBANON        CLEAR     43  34  70 S6        30.10S
OSAGE BEACH    CLEAR     41  30  65 SE7       30.09S
SPRINGFIELD    CLEAR     45  35  68 S12       30.10S
BRANSON        CLEAR     41  36  81 CALM      30.12F
NEVADA         PTCLDY    50  39  66 S10       30.05F
JOPLIN         MOCLDY    50  39  66 S9        30.09S
WEST PLAINS    CLEAR     36  31  82 CALM      30.15S

$$

IAZ060-094-KSZ022-034>040-054-083-096-NEZ052-066-093-301300-
...KANSAS...SOUTHEAST NEBRASKA AND IOWA...

CITY           SKY/WX    TMP DP  RH WIND       PRES   REMARKS
TOPEKA         MOCLDY    52  41  66 S6        29.99F
6HR MIN TEMP:  43; 6HR MAX TEMP:  53;

MANHATTAN      PTCLDY    50  36  58 W6        30.00R
EMPORIA        CLOUDY    57  38  48 SW13      30.00R
CHANUTE        MOCLDY    51  41  68 S14       30.04F
WICHITA        MOCLDY    49  36  61 VRB5      30.05R
OMAHA          PTCLDY    41  35  79 N3        30.02R
LINCOLN        CLEAR     37  33  85 CALM      30.04R
FALLS CITY     CLOUDY    45  40  82 CALM      29.97F
LAMONI         CLOUDY    44  36  73 S9        29.98F
DES MOINES     CLOUDY    44  36  73 E7        30.06S

$$




USA.gov is the U.S. government's official web portal to all federal, state and local government web resources and services.